Home   Weather   Stuttgart   Past weeks
Flag for Germany

Past Weather in Stuttgart, Baden-Württemberg, Germany — Yesterday and Last 2 Weeks

Now
54 °F

Passing clouds.


Feels Like: 54 °F
Forecast: 59 / 54 °F
Wind: 2 mph from East

Location: Stuttgart-Echterdingen

Current Time: Oct 18, 2019 at 3:43:47 am

Latest Report: Oct 18, 2019 at 3:20 am


Visibility: N/A

Pressure: 29.95 "Hg

Humidity: 94%

Dew Point: 52 °F

Location of StuttgartLocation

Past Weather in Stuttgart — Graph

°F

Stuttgart Temperature Yesterday

Maximum temperature yesterday: 70 °F (at 3:20 pm)
Minimum temperature yesterday: 45 °F (at 1:50 am)
Average temperature yesterday: 55 °F

High & Low Weather Summary for the Past Weeks

 TemperatureHumidityPressure
High79 °F (Oct 13, 3:20 pm)100% (Oct 4, 1:20 am)30.18 "Hg (Oct 4, 1:20 am)
Low37 °F (Oct 4, 1:20 am)39% (Oct 13, 4:20 pm)29.71 "Hg (Oct 15, 1:50 pm)
Average54 °F81%29.97 "Hg
* Reported Oct 3 2:20 am — Oct 18 2:20 am, Stuttgart. Weather by CustomWeather, © 2019

Note: Actual official high and low records may vary slightly from our data, if they occured in-between our weather recording intervals... More about our weather records

Advertising

Stuttgart Weather History for the Previous 24 Hours

Scroll right to see more
 ConditionsComfort  
Time TempWeatherWind HumidityBarometerVisibility
2:20 am
Fri, Oct 18
55 °FPassing clouds.1 mph88%29.95 "HgN/A
1:50 am55 °FPassing clouds.3 mph94%29.98 "HgN/A
1:20 am55 °FClear.2 mph94%29.98 "Hg10 mi
12:50 am55 °FPassing clouds.3 mph94%29.95 "HgN/A
12:20 am57 °FPassing clouds.3 mph88%29.98 "HgN/A
11:50 pm
Thu, Oct 17
55 °FPassing clouds.3 mph94%29.98 "HgN/A
11:20 pm55 °FLight rain. Passing clouds.2 mph94%29.98 "HgN/A
10:50 pm55 °FLight rain. Passing clouds.3 mph94%29.98 "HgN/A
10:20 pm55 °FLight rain. Passing clouds.5 mph94%29.98 "HgN/A
9:50 pm55 °FLight rain. Passing clouds.5 mph94%29.98 "HgN/A
9:20 pm57 °FLight rain. Passing clouds.5 mph88%29.98 "HgN/A
8:50 pm57 °FLight rain. Passing clouds.3 mph88%29.98 "HgN/A
8:20 pm57 °FLight rain. Clear.2 mph88%29.98 "HgN/A
7:50 pm57 °FLight rain. Passing clouds.3 mph88%29.98 "HgN/A
7:20 pm59 °FLight rain. Passing clouds.6 mph77%29.98 "HgN/A
6:50 pm61 °FLight rain. Passing clouds.10 mph72%29.98 "HgN/A
6:20 pm63 °FPassing clouds.10 mph64%29.95 "HgN/A
4:50 pm66 °FPassing clouds.6 mph56%29.95 "HgN/A
4:20 pm68 °FSunny.5 mph53%29.95 "Hg10 mi
3:50 pm68 °FSunny.3 mph49%29.95 "Hg10 mi
3:20 pm70 °FPassing clouds.5 mph46%29.95 "HgN/A
2:50 pm66 °FPassing clouds.5 mph52%29.95 "HgN/A
2:20 pm66 °FPassing clouds.6 mph52%29.95 "HgN/A
1:50 pm64 °FPassing clouds.6 mph60%29.98 "HgN/A
1:20 pm64 °FPassing clouds.6 mph56%29.98 "HgN/A
12:50 pm63 °FPassing clouds.5 mph59%29.98 "HgN/A
12:20 pm63 °FPassing clouds.5 mph59%29.98 "HgN/A
11:50 am61 °FPassing clouds.6 mph63%29.98 "HgN/A
11:20 am63 °FPassing clouds.6 mph68%30.01 "HgN/A
10:50 am57 °FSunny.2 mph77%30.01 "Hg10 mi
10:20 am55 °FSunny.2 mph82%30.01 "Hg10 mi
9:50 am52 °FSunny.1 mph88%30.01 "Hg10 mi
9:20 am50 °FLight rain. Clear.2 mph94%30.01 "HgN/A
8:50 am48 °FSunny.2 mph94%30.01 "Hg10 mi
8:20 am50 °FSunny.3 mph88%29.98 "Hg10 mi
7:50 am48 °FLight rain. Clear.1 mph94%29.98 "HgN/A
7:20 am48 °FLight rain. Clear.1 mph94%29.98 "HgN/A
6:50 am48 °FClear.3 mph94%29.98 "Hg10 mi
6:20 am48 °FLight rain. Clear.3 mph94%29.98 "HgN/A
5:50 am52 °FLight rain. Clear.2 mph77%29.98 "HgN/A
5:20 am50 °FLight rain. Clear.1 mph82%29.98 "HgN/A
4:20 am46 °FClear.1 mph93%29.98 "Hg10 mi
3:50 am46 °FClear.1 mph93%29.98 "Hg10 mi
3:20 am45 °FClear.2 mph100%29.98 "Hg10 mi
Weather by CustomWeather, © 2019

See weather overview